Hourly Data Report for October 21, 2015

All times are specified in Local Standard Time (LST). Add 1 hour to adjust for Daylight Saving Time where and when it is observed.

PENTICTON A
BRITISH COLUMBIA

49°27'45.000" N
119°36'08.000" W
344.40 m
1126146
71889
YYF

Download Data

Hourly Data (October 2015)
Hourly Data Report for October 21, 2015
Temp Definition
°C
Dew Point Temp Definition
°C
Rel Hum Definition
%
Wind Dir Definition
10's deg

Wind Spd Definition
km/h
Visibility Definition
km
Stn Press Definition
kPa
Hmdx Definition


Wind Chill Definition


Weather Definition


TIME
00:00 Legend Double Dagger 5.0 3.2 88 27 4 24.1 98.26     LegendNANA
01:00 Legend Double Dagger 4.8 3.0 88 36 2 24.1 98.22     Clear
02:00 Legend Double Dagger 2.7 1.5 92 1 6 24.1 98.22     LegendNANA
03:00 Legend Double Dagger 2.3 1.1 92 36 3 24.1 98.18     LegendNANA
04:00 Legend Double Dagger 2.5 1.2 91 36 3 24.1 98.18     Clear
05:00 Legend Double Dagger 2.9 1.6 91 2 6 24.1 98.17     LegendNANA
06:00 Legend Double Dagger 2.2 1.2 93 36 2 24.1 98.13     LegendNANA
07:00 Legend Double Dagger 1.7 1.1 96 6 4 24.1 98.11     Mostly Cloudy
08:00 Legend Double Dagger 5.7 3.7 87 36 3 24.1 98.12     LegendNANA
09:00 Legend Double Dagger 8.5 4.5 76 23 3 24.1 98.04     LegendNANA
10:00 Legend Double Dagger 11.4 4.4 62 3 3 24.1 97.98     Mostly Cloudy
11:00 Legend Double Dagger 13.1 4.3 55 17 17 24.1 97.92     LegendNANA
12:00 Legend Double Dagger 13.8 5.2 56 17 16 24.1 97.83     LegendNANA
13:00 Legend Double Dagger 14.7 5.3 53 15 20 24.1 97.77     Cloudy
14:00 Legend Double Dagger 15.1 5.9 54 15 12 24.1 97.73     LegendNANA
15:00 Legend Double Dagger 15.6 6.9 56 15 7 24.1 97.70     LegendNANA
16:00 Legend Double Dagger 13.6 7.6 67 35 10 24.1 97.67     Mostly Cloudy
17:00 Legend Double Dagger 11.4 7.2 75 4 8 24.1 97.65     LegendNANA
18:00 Legend Double Dagger 9.6 6.3 80 36 3 24.1 97.67     LegendNANA
19:00 Legend Double Dagger 9.7 7.2 84 36 3 24.1 97.68     Mostly Cloudy
20:00 Legend Double Dagger 7.8 6.0 88 2 7 24.1 97.68     LegendNANA
21:00 Legend Double Dagger 10.3 6.7 78 11 3 24.1 97.70     LegendNANA
22:00 Legend Double Dagger 7.8 5.5 85 31 4 24.1 97.75     Mostly Cloudy
23:00 Legend Double Dagger 8.7 5.5 80 34 10 24.1 97.78     LegendNANA

Notes on Data Quality.

Legend

  • E = Estimated
  • M = Missing
  • NA = Not Available
  • ‡ = Partner data that is not subject to review by the National Climate Archives
Date modified: